Location: *
(28.2408°N, 53.4600°E)
Time: 08:26:20
(UTC+00:00)

Aurora 2 Rocket - Pass Details

Date: 22 September 2019
Orbit: 390 x 1748 km, 25.0° (Epoch: 20 October)

Event Time Altitude Azimuth Distance (km) Brightness Sun altitude
Rises 16:04:13 0° 257° (WSW) 5,017 8.3 -22.9°
Reaches altitude 10° 16:07:46 10° 255° (WSW) 3,972 7.5 -23.6°
Maximum altitude 16:18:19 70° 175° (S) 1,542 4.3 -25.9°
Enters shadow 16:20:55 49° 111° (ESE) 1,715 4.3 -26.4°
